When you browse on this site, cookies collect data to enhance your experience and personalize the content and advertising you see.
Visit our Privacy Policy to learn more. By continuing to use the site, you agree to this use of cookies and data.
  • In United Kingdom
  • List of Countries
  • For 7 days
  • Water Temperature
  • Weather Map
  • Weather Widgets
  • user-avatar
    Login

    Hourly Weather Lajosmizse

    Today, 22 September, Sunday

    Time Temperature Precipitation Wind Pressure Humidity
    00:00 +12°C° 0 mm 1 mps 755 mmHg 46%
    01:00 +11°C° 0 mm 1 mps 755 mmHg 47%
    02:00 +11°C° 0 mm 1 mps 754 mmHg 47%
    03:00 +11°C° 0 mm 1 mps 754 mmHg 47%
    04:00 +10°C° 0 mm 2 mps 754 mmHg 47%
    05:00 +10°C° 0 mm 2 mps 754 mmHg 46%
    06:00 +12°C° 0 mm 2 mps 754 mmHg 45%
    07:00 +13°C° 0 mm 2 mps 754 mmHg 41%
    08:00 +15°C° 0 mm 2 mps 754 mmHg 37%
    09:00 +17°C° 0 mm 3 mps 754 mmHg 33%
    10:00 +20°C° 0 mm 4 mps 753 mmHg 29%
    11:00 +21°C° 0 mm 4 mps 753 mmHg 26%
    12:00 +22°C° 0 mm 4 mps 752 mmHg 24%
    13:00 +24°C° 0 mm 3 mps 752 mmHg 23%
    14:00 +24°C° 0 mm 3 mps 751 mmHg 23%
    15:00 +24°C° 0 mm 3 mps 750 mmHg 23%
    16:00 +24°C° 0 mm 3 mps 750 mmHg 23%
    17:00 +21°C° 0 mm 2 mps 749 mmHg 26%
    18:00 +19°C° 0 mm 2 mps 749 mmHg 28%
    19:00 +18°C° 0 mm 2 mps 749 mmHg 30%
    20:00 +17°C° 0 mm 2 mps 749 mmHg 31%
    21:00 +17°C° 0 mm 2 mps 749 mmHg 31%
    22:00 +17°C° 0 mm 2 mps 749 mmHg 32%
    23:00 +16°C° 0 mm 2 mps 749 mmHg 32%

    Tomorrow, 23 September, Monday

    Time Temperature Precipitation Wind Pressure Humidity
    00:00 +16°C° 0 mm 2 mps 749 mmHg 32%
    01:00 +16°C° 0 mm 2 mps 749 mmHg 33%
    02:00 +16°C° 0 mm 2 mps 748 mmHg 34%
    03:00 +17°C° 0 mm 2 mps 748 mmHg 35%
    04:00 +17°C° 0 mm 2 mps 748 mmHg 36%
    05:00 +17°C° 0 mm 2 mps 748 mmHg 39%
    06:00 +17°C° 0 mm 2 mps 748 mmHg 42%
    07:00 +17°C° 0 mm 2 mps 748 mmHg 44%
    08:00 +16°C° 0.1 mm 2 mps 748 mmHg 47%
    09:00 +16°C° 0.1 mm 3 mps 748 mmHg 50%
    10:00 +14°C° 0.1 mm 3 mps 748 mmHg 53%
    11:00 +14°C° 0 mm 3 mps 748 mmHg 54%
    12:00 +14°C° 0 mm 4 mps 748 mmHg 54%
    13:00 +14°C° 0 mm 4 mps 748 mmHg 55%
    14:00 +14°C° 0 mm 4 mps 748 mmHg 57%
    15:00 +14°C° 0 mm 4 mps 748 mmHg 60%
    16:00 +14°C° 0 mm 3 mps 748 mmHg 62%
    17:00 +13°C° 0 mm 3 mps 748 mmHg 66%
    18:00 +14°C° 0 mm 2 mps 748 mmHg 70%
    19:00 +13°C° 0 mm 2 mps 748 mmHg 74%
    20:00 +13°C° 0 mm 2 mps 748 mmHg 77%
    21:00 +13°C° 0 mm 2 mps 748 mmHg 79%
    22:00 +12°C° 0 mm 2 mps 748 mmHg 82%
    23:00 +12°C° 0 mm 2 mps 748 mmHg 80%

    Day after tomorrow, 24 September, Tuesday

    Time Temperature Precipitation Wind Pressure Humidity
    00:00 +12°C° 0 mm 2 mps 748 mmHg 78%
    01:00 +12°C° 0 mm 2 mps 748 mmHg 76%
    02:00 +13°C° 0 mm 2 mps 748 mmHg 76%
    03:00 +13°C° 0 mm 2 mps 748 mmHg 76%
    04:00 +13°C° 0 mm 2 mps 747 mmHg 76%
    05:00 +14°C° 0 mm 2 mps 748 mmHg 74%
    06:00 +14°C° 0 mm 2 mps 748 mmHg 71%
    07:00 +14°C° 0 mm 3 mps 748 mmHg 69%
    08:00 +16°C° 0 mm 3 mps 748 mmHg 63%
    09:00 +18°C° 0 mm 2 mps 748 mmHg 58%
    10:00 +19°C° 0 mm 2 mps 748 mmHg 53%
    11:00 +21°C° 0 mm 2 mps 748 mmHg 47%
    12:00 +22°C° 0 mm 3 mps 748 mmHg 41%
    13:00 +25°C° 0 mm 3 mps 747 mmHg 36%
    14:00 +25°C° 0 mm 2 mps 747 mmHg 36%
    15:00 +24°C° 0 mm 2 mps 747 mmHg 37%
    16:00 +24°C° 0 mm 1 mps 747 mmHg 38%
    17:00 +23°C° 0 mm 2 mps 747 mmHg 43%
    18:00 +20°C° 0 mm 2 mps 747 mmHg 47%
    19:00 +18°C° 0 mm 3 mps 747 mmHg 52%
    20:00 +18°C° 0 mm 3 mps 747 mmHg 54%
    21:00 +18°C° 0 mm 3 mps 747 mmHg 56%
    22:00 +17°C° 0 mm 4 mps 748 mmHg 58%
    23:00 +17°C° 0 mm 3 mps 747 mmHg 60%

    25 September, Wednesday

    Time Temperature Precipitation Wind Pressure Humidity
    00:00 +17°C° 0 mm 3 mps 747 mmHg 62%
    01:00 +17°C° 0 mm 3 mps 747 mmHg 64%
    02:00 +16°C° 0 mm 3 mps 747 mmHg 67%
    03:00 +16°C° 0 mm 3 mps 747 mmHg 69%
    04:00 +16°C° 0 mm 3 mps 747 mmHg 72%
    05:00 +16°C° 0 mm 3 mps 747 mmHg 74%
    06:00 +14°C° 0 mm 3 mps 747 mmHg 76%
    07:00 +14°C° 0 mm 3 mps 747 mmHg 78%
    08:00 +16°C° 0 mm 3 mps 747 mmHg 74%
    09:00 +17°C° 0 mm 3 mps 747 mmHg 70%
    10:00 +18°C° 0 mm 3 mps 747 mmHg 66%
    11:00 +19°C° 0 mm 3 mps 747 mmHg 63%
    12:00 +20°C° 0 mm 2 mps 747 mmHg 60%
    13:00 +21°C° 0 mm 2 mps 747 mmHg 56%
    14:00 +21°C° 0 mm 2 mps 746 mmHg 55%
    15:00 +21°C° 0 mm 2 mps 746 mmHg 54%
    16:00 +22°C° 0 mm 1 mps 746 mmHg 53%
    17:00 +20°C° 0 mm 2 mps 746 mmHg 58%
    18:00 +19°C° 0 mm 2 mps 746 mmHg 63%
    19:00 +18°C° 0 mm 2 mps 746 mmHg 68%
    20:00 +17°C° 0.1 mm 2 mps 746 mmHg 71%
    21:00 +17°C° 0.1 mm 2 mps 747 mmHg 73%
    22:00 +18°C° 0.1 mm 1 mps 747 mmHg 76%
    23:00 +16°C° 0.2 mm 2 mps 747 mmHg 77%

    26 September, Thursday

    Time Temperature Precipitation Wind Pressure Humidity
    00:00 +16°C° 0.2 mm 3 mps 747 mmHg 77%
    01:00 +15°C° 0.2 mm 4 mps 747 mmHg 78%
    02:00 +14°C° 0.1 mm 3 mps 747 mmHg 79%
    03:00 +14°C° 0.1 mm 3 mps 747 mmHg 80%
    04:00 +15°C° 0.1 mm 2 mps 748 mmHg 80%
    05:00 +15°C° 0.1 mm 2 mps 748 mmHg 81%
    06:00 +15°C° 0.1 mm 2 mps 748 mmHg 81%
    07:00 +15°C° 0.1 mm 2 mps 748 mmHg 82%
    08:00 +17°C° 0 mm 3 mps 749 mmHg 73%
    09:00 +18°C° 0 mm 3 mps 749 mmHg 64%
    10:00 +20°C° 0 mm 4 mps 750 mmHg 55%
    11:00 +21°C° 0 mm 4 mps 749 mmHg 51%
    12:00 +22°C° 0 mm 5 mps 749 mmHg 46%
    13:00 +23°C° 0 mm 5 mps 749 mmHg 42%
    14:00 +23°C° 0 mm 5 mps 749 mmHg 42%
    15:00 +22°C° 0 mm 5 mps 749 mmHg 41%
    16:00 +22°C° 0 mm 5 mps 749 mmHg 41%
    17:00 +21°C° 0 mm 4 mps 749 mmHg 46%
    18:00 +19°C° 0 mm 3 mps 750 mmHg 51%
    19:00 +17°C° 0 mm 3 mps 750 mmHg 56%
    20:00 +17°C° 0 mm 3 mps 750 mmHg 59%
    21:00 +16°C° 0 mm 3 mps 751 mmHg 62%
    22:00 +16°C° 0 mm 3 mps 751 mmHg 64%
    23:00 +14°C° 0 mm 3 mps 751 mmHg 67%

    27 September, Friday

    Time Temperature Precipitation Wind Pressure Humidity
    00:00 +14°C° 0 mm 3 mps 751 mmHg 70%
    01:00 +13°C° 0 mm 3 mps 751 mmHg 73%
    02:00 +14°C° 0 mm 2 mps 751 mmHg 75%
    03:00 +14°C° 0 mm 2 mps 751 mmHg 78%
    04:00 +13°C° 0 mm 2 mps 752 mmHg 80%
    05:00 +14°C° 0 mm 2 mps 752 mmHg 78%
    06:00 +14°C° 0 mm 1 mps 752 mmHg 75%
    07:00 +15°C° 0 mm 1 mps 752 mmHg 73%
    08:00 +18°C° 0 mm 1 mps 752 mmHg 66%
    09:00 +20°C° 0 mm 1 mps 752 mmHg 58%
    10:00 +21°C° 0 mm 2 mps 753 mmHg 50%
    11:00 +23°C° 0 mm 2 mps 752 mmHg 47%
    12:00 +24°C° 0 mm 2 mps 752 mmHg 44%
    13:00 +25°C° 0 mm 2 mps 751 mmHg 40%
    14:00 +25°C° 0 mm 2 mps 751 mmHg 40%
    15:00 +25°C° 0 mm 2 mps 751 mmHg 40%
    16:00 +25°C° 0 mm 2 mps 750 mmHg 39%
    17:00 +24°C° 0 mm 2 mps 751 mmHg 44%
    18:00 +21°C° 0 mm 2 mps 751 mmHg 49%
    19:00 +19°C° 0 mm 2 mps 751 mmHg 53%
    20:00 +19°C° 0 mm 2 mps 751 mmHg 55%
    21:00 +18°C° 0 mm 2 mps 751 mmHg 56%
    22:00 +18°C° 0 mm 2 mps 751 mmHg 57%
    23:00 +17°C° 0 mm 2 mps 751 mmHg 58%
    Show more